Home   Weather   Udon Thani   Past weeks

Flag for Thailand Past Weather in Udon Thani, Thailand — Yesterday and Last 2 Weeks

88 °F

Scattered clouds.

Feels Like: 102 °F
Forecast: 76 / 88 °F
Wind: 6 mph from Southwest

Location: Udon Thani Airport

Current Time: Oct 26, 2016 at 4:42:42 PM

Latest Report: Oct 26, 2016 at 4:00 PM

Visibility: N/A

Pressure: 29.80 "Hg

Humidity: 75%

Dew Point: 79 °F

Location of Udon ThaniLocation

Past Weather in Udon Thani — Graph


Udon Thani Temperature Yesterday

Maximum temperature yesterday: 82 °F (at 2:00 PM)
Minimum temperature yesterday: 73 °F (at 12:00 AM)
Average temperature yesterday: 77 °F

High & Low Weather Summary for the Past Weeks

High95 °F (Oct 23, 3:00 PM)100% (Oct 11, 11:00 PM)29.98 "Hg (Oct 11, 11:00 PM)
Low72 °F (Oct 17, 4:00 AM)49% (Oct 19, 2:00 PM)29.59 "Hg (Oct 19, 4:00 PM)
Average81 °F83%29.77 "Hg
* Reported Oct 11 3:00 PM — Oct 26 3:00 PM, Udon Thani, Weather by CustomWeather, © 2016

Note: Actual official high and low records may vary slightly from our data, if they occured in-between our weather recording intervals... More about our weather records


Udon Thani Weather History for the Previous 24 Hours

Scroll right to see more
Time TempWeatherWind HumidityBarometerVisibility
3:00 PM
Wed, Oct 26
88 °FScattered clouds.3 mph66%29.80 "HgN/A
2:00 PM90 °FThunderstorms. Partly sunny.6 mph67%29.86 "HgN/A
1:00 PM91 °FScattered clouds.7 mph63%29.89 "HgN/A
12:00 PM90 °FPartly sunny.6 mph67%29.92 "HgN/A
11:00 AM90 °FPassing clouds.7 mph71%29.95 "HgN/A
10:00 AM84 °FPassing clouds.2 mph79%29.98 "HgN/A
9:00 AM81 °FPartly sunny.2 mph89%29.98 "Hg5 mi
8:00 AM77 °FFog.2 mph100%29.95 "Hg3 mi
7:00 AM75 °FFog.2 mph100%29.89 "Hg2 mi
6:00 AM75 °FFog.1 mph100%29.86 "Hg1 mi
5:00 AM75 °FFog.1 mph100%29.86 "Hg1 mi
4:00 AM75 °FPassing clouds.1 mph100%29.86 "Hg4 mi
3:00 AM75 °FPassing clouds.3 mph100%29.83 "HgN/A
2:00 AM75 °FPassing clouds.2 mph100%29.86 "HgN/A
1:00 AM75 °FClear.1 mph100%29.86 "Hg10 mi
12:00 AM77 °FPassing clouds.3 mph100%29.89 "HgN/A
11:00 PM
Tue, Oct 25
77 °FPassing clouds.3 mph100%29.89 "Hg1 mi
10:00 PM77 °FClear.No wind100%29.89 "Hg5 mi
9:00 PM77 °FPassing clouds.2 mph100%29.89 "HgN/A
8:00 PM77 °FLight rain. Partly cloudy.2 mph100%29.86 "HgN/A
7:00 PM77 °FPassing clouds.3 mph100%29.80 "HgN/A
6:00 PM77 °FPassing clouds.No wind94%29.77 "HgN/A
5:00 PM79 °FScattered clouds.3 mph89%29.77 "HgN/A
4:00 PM79 °FScattered clouds.2 mph89%29.74 "HgN/A
Weather by CustomWeather, © 2016

See weather overviewHow to use our weather pages